Weather in Bohicon

Benin     7°10′30″N   2°03′55″E
temp.,
°C
wind,
m/s
gust,
m/s
humid.,
%
clouds,
%
prec.,
mm/h
press.,
hPa
HPBL,
m
17 june, thu
thu1701:00+23ssw398692 0.0 1014491
04:00+23sw3986100 0.0 1014423
07:00+23sw3988100 0.0 1014429
10:00+28sw456053 0.0 1015921
13:00+33sw324334 0.0 10131583
16:00+35ssw223681 0.0 10102482
19:00+28s496882 0.3 1012424
22:00+24ssw4118898 0.6 1014465
18 june, fri
fri1801:00+24ssw2892100 0.6 1014373
04:00+23ssw2894100 0.0 1013380
07:00+23sw289493 0.0 1014420
10:00+28sw457063 0.1 1016965
13:00+31sw225654 0.5 10141407
16:00+30s5564100 0.5 1012869
19:00+27ssw4772100 0.7 1012648
22:00+25ssw498299 0.0 1014552
19 june, sat
sat1901:00+24ssw388662 0.0 1014500
04:00+23sw279172 0.0 1013338
07:00+23sw269221 0.0 1014272
10:00+29sw336358 0.0 10151041
13:00+33s3348100 0.0 10131850
16:00+32sse445099 0.0 10111349
19:00+28s4769100 0.1 1012552
22:00+25ssw3880100 0.0 1014468
20 june, sun
sun2001:00+24ssw388814 0.1 1014460
04:00+23wsw3891100 0.1 1013410
07:00+23sw169156 0.1 1015269
10:00+29sw3364100 0.0 1015902
13:00+30ssw445870 0.0 10141184
16:00+30ssw4457100 0.1 10111189
19:00+28ssw3765100 0.1 1012592
22:00+24ssw41086100 0.3 1014535
21 june, mon
mon2101:00+23sw299498 0.9 1014424
04:00+23ssw2894100 0.1 1012417
07:00+23wsw389596 0.1 1014479
10:00+27sw457493 0.0 1015808
13:00+30ssw346388 2.1 10131270
16:00+25sse4787100 8.3 1012275
19:00+23s4896100 13.8 1013421
22:00+23ssw389685 0.6 1014467